Location: Monteux
(44.0348°N, 4.9972°E)
Time: 18:10:00
(UTC+00:00)

Cosmos 1238 Rocket - Pass Details

Date: 30 November 2020
Orbit: 376 x 1024 km, 83.0° (Epoch: 17 January)

Event Time Altitude Azimuth Distance (km) Brightness Sun altitude
Rises 18:16:30 0° 352° (N) 2,627 6.3 -23.3°
Enters shadow 18:17:13 - 353° (N) 2,325 6.0 -23.4°
Exits shadow 18:24:05 40° 169° (S) 963 3.9 -24.7°
Drops below altitude 10° 18:27:21 10° 172° (S) 2,204 5.9 -25.2°
Sets 18:29:54 0° 173° (S) 3,235 6.7 -25.7°
